Location: Unspecified
(0.0000°N, 0.0000°E)
Time: 12:40:58
(UTC+00:00)

STARLINK-31823 - Visible Passes

Search period start: 20 July 2025 00:00
Search period end: 30 July 2025 00:00
Orbit: 482 x 484 km, 43.0° (Epoch: 20 July)

Date Brightness Start Highest point End Pass type
(mag) Time Alt. Az. Time Alt. Az. Time Alt. Az.
21 Jul 5.8 19:46:35 10° N 19:47:23 13° NNE 19:47:23 13° NNE visible
22 Jul 5.4 19:18:52 10° N 19:21:12 16° NE 19:21:13 16° NE visible
23 Jul 5.4 18:51:08 10° N 18:53:20 15° NE 18:55:04 12° ENE visible
23 Jul 6.5 20:28:44 10° WNW 20:29:20 14° WNW 20:29:20 14° WNW visible
24 Jul 5.2 20:00:48 10° WNW 20:03:13 28° W 20:03:13 28° W visible
25 Jul 4.5 19:32:50 10° WNW 19:36:18 36° SW 19:37:07 32° SSW visible
26 Jul 6.0 05:41:41 10° SSE 05:43:34 13° SE 05:45:27 10° ESE visible
26 Jul 4.5 19:04:49 10° WNW 19:08:20 38° SW 19:11:00 16° SSE visible
27 Jul 6.0 05:13:52 10° SSE 05:15:34 13° SE 05:17:17 10° ESE visible
27 Jul 4.5 18:36:47 10° WNW 18:40:19 40° SW 18:43:53 10° SSE visible
28 Jul 6.1 04:46:01 10° SSE 04:47:32 12° SE 04:49:03 10° ESE visible
29 Jul 6.1 04:18:53 11° SE 04:19:27 11° SE 04:20:44 10° ESE visible
